Location: D�derode
(51.8092°N, 10.1065°E)
Time: 23:09:25
(UTC+00:00)

Cosmos 1869 Rocket - Pass Details

Date: 22 April 2021
Orbit: 603 x 634 km, 82.5° (Epoch: 14 May)

Event Time Altitude Azimuth Distance (km) Brightness Sun altitude
Rises 00:30:17 0° 342° (NNW) 2,897 7.8 -24.1°
Reaches altitude 10° 00:32:42 10° 332° (NNW) 1,981 6.7 -24.0°
Enters shadow 00:35:52 30° 289° (WNW) 1,117 4.8 -23.8°
